Weather History for KDEN - July, 2013

Change the Weather History Date:

Saturday, July 20, 2013

  Actual Average Record
Temperature  
Mean Temperature 75 °F 75 °F  
Max Temperature 92 °F 90 °F 105 °F (2005)
Min Temperature 58 °F 60 °F 43 °F (1897)
Degree Days  
Heating Degree Days 0 0  
Month to date heating degree days 0 1  
Since 1 June heating degree days 29 63  
Since 1 July heating degree days 0 1  
Cooling Degree Days 10 10  
Month to date cooling degree days 212 179  
Year to date cooling degree days 475 334  
Since 1 June cooling degree days 433 312  
Growing Degree Days 25 (Base 50)    
Moisture  
Dew Point 54 °F    
Average Humidity 53    
Maximum Humidity 87    
Minimum Humidity 18    
Precipitation  
Precipitation T in 0.08 in 1.09 in (1965)
Month to date precipitation 1.48 1.29  
Year to date precipitation 7.47 8.80  
Snow  
Snow 0.00 in - - ()
Month to date snowfall 0  
Since 1 June snowfall 0  
Since 1 July snowfall 0  
Snow Depth 0.00 in    
Sea Level Pressure  
Sea Level Pressure 29.87 in    
Wind  
Wind Speed 10 mph (SE)    
Max Wind Speed 45 mph    
Max Gust Speed 58 mph    
Visibility 10 miles    
Events Rain , Thunderstorm    
T = Trace of Precipitation, MM = Missing Value Source: NWS Daily Summary

Daily Weather History Graph

Daily Weather History Graph

Search for Another Location

Airport or City:

Trip Planner

Search our weather history database for the weather conditions in past years. The results will help you decide how hot, cold, wet, or windy it might be!

Date:

Astronomy

Jul. 20, 2013 Rise Set
Actual Time 5:47 AM MDT 8:22 PM MDT
Civil Twilight 5:15 AM MDT 8:53 PM MDT
Nautical Twilight 4:36 AM MDT 9:32 PM MDT
Astronomical Twilight 3:52 AM MDT 10:16 PM MDT
Moon 6:28 PM MDT (7/20) 3:29 AM MDT (7/20)
Length of Visible Light 15h 37m
Length of Day
14h 35m
Waxing Gibbous, 94% of the Moon is Illuminated
Jul 20
Waxing Gibbous
Jul 22
Full
Jul 29
Last Quarter
Aug 6
New
Aug 14
First Quarter

Hourly Weather History & Observations

Time (MDT) Temp. Heat Index Dew Point Humidity Pressure Visibility Wind Dir Wind Speed Gust Speed Precip Events Conditions
12:53 AM 61.0 °F - 55.0 °F 81% 29.92 in 10.0 mi SSE 10.4 mph - N/A   Scattered Clouds
1:53 AM 61.0 °F - 55.0 °F 81% 29.91 in 10.0 mi SSE 9.2 mph - N/A   Scattered Clouds
2:53 AM 63.0 °F - 55.0 °F 75% 29.89 in 10.0 mi South 11.5 mph - N/A   Partly Cloudy
3:53 AM 62.1 °F - 55.0 °F 78% 29.88 in 10.0 mi South 10.4 mph - N/A   Clear
4:53 AM 59.0 °F - 54.0 °F 83% 29.88 in 10.0 mi South 5.8 mph - N/A   Partly Cloudy
5:53 AM 59.0 °F - 55.0 °F 87% 29.87 in 10.0 mi SSW 6.9 mph - N/A   Scattered Clouds
6:53 AM 63.0 °F - 55.9 °F 78% 29.86 in 10.0 mi SW 8.1 mph - N/A   Scattered Clouds
7:53 AM 68.0 °F - 57.0 °F 68% 29.86 in 10.0 mi SW 6.9 mph - N/A   Scattered Clouds
8:53 AM 72.0 °F - 57.0 °F 59% 29.86 in 10.0 mi West 4.6 mph - N/A   Scattered Clouds
9:53 AM 77.0 °F - 55.0 °F 47% 29.83 in 10.0 mi Calm Calm - N/A   Scattered Clouds
10:53 AM 81.0 °F 80.8 °F 55.9 °F 42% 29.82 in 10.0 mi Calm Calm - N/A   Scattered Clouds
11:53 AM 84.0 °F 82.9 °F 55.0 °F 37% 29.81 in 10.0 mi Variable 3.5 mph - N/A   Scattered Clouds
12:53 PM 88.0 °F - 51.1 °F 28% 29.78 in 10.0 mi ESE 6.9 mph 17.3 mph N/A   Scattered Clouds
1:53 PM 88.0 °F - 45.0 °F 22% 29.77 in 10.0 mi East 11.5 mph 19.6 mph N/A   Scattered Clouds
2:53 PM 90.0 °F - 46.0 °F 22% 29.74 in 10.0 mi ENE 18.4 mph 23.0 mph N/A   Scattered Clouds
3:53 PM 91.0 °F - 43.0 °F 19% 29.73 in 10.0 mi NE 11.5 mph 20.7 mph N/A   Mostly Cloudy
4:32 PM 89.6 °F - 46.4 °F 22% 29.98 in 10.0 mi NNE 11.5 mph - N/A Thunderstorm Thunderstorm
4:53 PM 86.0 °F - 48.9 °F 28% 29.74 in 10.0 mi NNE 24.2 mph - N/A Thunderstorm Thunderstorm
5:35 PM 86.0 °F - 48.2 °F 27% 29.96 in 10.0 mi ENE 15.0 mph 26.5 mph 0.00 in Rain , Thunderstorm Light Thunderstorms and Rain
5:53 PM 84.9 °F - 51.1 °F 31% 29.77 in 10.0 mi SSE 16.1 mph - 0.00 in Thunderstorm Thunderstorm
5:56 PM 78.8 °F - 55.4 °F 44% 30.01 in 10.0 mi SSE 17.3 mph 26.5 mph N/A Thunderstorm Thunderstorm
6:07 PM 78.8 °F - 53.6 °F 42% 30.00 in 10.0 mi SSE 20.7 mph 27.6 mph N/A   Mostly Cloudy
6:53 PM 75.0 °F - 57.9 °F 55% 29.79 in 10.0 mi SE 17.3 mph 21.9 mph N/A   Mostly Cloudy
6:58 PM 75.2 °F - 57.2 °F 53% 30.00 in 10.0 mi SE 18.4 mph - N/A Thunderstorm Thunderstorm
7:14 PM 71.6 °F - 55.4 °F 57% 30.06 in 9.0 mi NE 36.8 mph 50.6 mph N/A Thunderstorm Widespread Dust
7:29 PM 64.4 °F - 57.2 °F 77% 30.07 in 10.0 mi NE 31.1 mph 39.1 mph N/A Thunderstorm Thunderstorm
7:40 PM 62.6 °F - 57.2 °F 82% 30.07 in 10.0 mi NE 20.7 mph 35.7 mph N/A   Mostly Cloudy
7:53 PM 63.0 °F - 57.0 °F 81% 29.87 in 10.0 mi ENE 15.0 mph - N/A   Mostly Cloudy
8:53 PM 63.0 °F - 55.0 °F 75% 29.87 in 10.0 mi SE 8.1 mph - N/A   Mostly Cloudy
9:53 PM 66.0 °F - 57.0 °F 73% 29.89 in 10.0 mi South 4.6 mph - N/A   Mostly Cloudy
10:53 PM 66.9 °F - 55.0 °F 66% 29.86 in 10.0 mi SSW 13.8 mph - N/A   Mostly Cloudy
11:53 PM 66.0 °F - 54.0 °F 65% 29.81 in 10.0 mi SW 10.4 mph - N/A   Partly Cloudy